TimePDT,TemperatureF,Dew PointF,Humidity,Sea Level PressureIn,VisibilityMPH,Wind Direction,Wind SpeedMPH,Gust SpeedMPH,PrecipitationIn,Events,Conditions,WindDirDegrees,DateUTC
12:00 AM,53.1,52.0,96,29.99,0.2,East,3.5,-,N/A,Fog,Fog,80,2012-10-14 07:00:00
12:23 AM,53.1,52.0,96,30.01,0.2,Variable,3.5,-,N/A,Fog,Fog,0,2012-10-14 07:23:00
12:53 AM,53.1,52.0,96,30.00,0.2,South,3.5,-,N/A,Fog,Fog,190,2012-10-14 07:53:00
1:02 AM,54.0,52.0,93,29.99,0.8,SSE,3.5,-,N/A,,Mist,160,2012-10-14 08:02:00
1:10 AM,54.0,53.1,97,29.99,1.5,Calm,Calm,-,N/A,,Overcast,0,2012-10-14 08:10:00
1:18 AM,54.0,53.1,97,29.99,3.0,Calm,Calm,-,N/A,,Overcast,0,2012-10-14 08:18:00
1:26 AM,54.0,53.1,97,29.99,3.0,Calm,Calm,-,N/A,,Overcast,0,2012-10-14 08:26:00
1:30 AM,54.0,53.1,97,29.99,1.8,Calm,Calm,-,N/A,,Overcast,0,2012-10-14 08:30:00
1:46 AM,54.0,52.0,93,29.97,2.0,SE,8.1,-,N/A,,Mostly Cloudy,140,2012-10-14 08:46:00
1:53 AM,54.0,53.1,97,29.96,5.0,SE,5.8,-,N/A,,Scattered Clouds,130,2012-10-14 08:53:00
2:47 AM,53.6,53.6,100,29.96,1.0,NW,10.4,-,N/A,,Mist,320,2012-10-14 09:47:00
2:51 AM,51.8,51.8,100,29.97,0.2,NW,5.8,-,N/A,Fog,Fog,320,2012-10-14 09:51:00
2:53 AM,52.0,51.1,97,29.98,0.2,NNW,8.1,-,N/A,Fog,Fog,330,2012-10-14 09:53:00
3:13 AM,53.1,52.0,96,29.95,0.5,NNW,4.6,-,N/A,Fog,Fog,340,2012-10-14 10:13:00
3:21 AM,53.1,52.0,96,29.93,1.0,SE,3.5,-,N/A,,Mist,130,2012-10-14 10:21:00
3:33 AM,53.1,52.0,96,29.94,3.0,NW,8.1,-,N/A,,Mostly Cloudy,320,2012-10-14 10:33:00
3:37 AM,53.1,52.0,96,29.95,1.5,NW,8.1,-,N/A,,Mostly Cloudy,320,2012-10-14 10:37:00
3:48 AM,53.6,53.6,100,29.93,0.8,Calm,Calm,-,N/A,,Mostly Cloudy,0,2012-10-14 10:48:00
3:53 AM,54.0,53.1,97,29.93,1.2,WSW,5.8,-,N/A,,Mostly Cloudy,250,2012-10-14 10:53:00
3:58 AM,54.0,53.1,97,29.92,2.5,SSW,6.9,-,N/A,,Scattered Clouds,200,2012-10-14 10:58:00
4:05 AM,54.0,53.1,97,29.92,8.0,Calm,Calm,-,N/A,,Scattered Clouds,0,2012-10-14 11:05:00
4:53 AM,53.1,52.0,96,29.91,8.0,ESE,5.8,-,N/A,,Scattered Clouds,120,2012-10-14 11:53:00
5:15 AM,53.1,52.0,96,29.91,10.0,Calm,Calm,-,N/A,,Mostly Cloudy,0,2012-10-14 12:15:00
5:21 AM,53.1,52.0,96,29.91,2.5,NNW,4.6,-,N/A,,Scattered Clouds,330,2012-10-14 12:21:00
5:28 AM,53.1,51.1,93,29.91,1.0,Calm,Calm,-,N/A,,Scattered Clouds,0,2012-10-14 12:28:00
5:34 AM,53.1,52.0,96,29.91,4.0,Calm,Calm,-,N/A,,Partly Cloudy,0,2012-10-14 12:34:00
5:53 AM,52.0,51.1,97,29.90,3.0,SSE,4.6,-,N/A,,Partly Cloudy,160,2012-10-14 12:53:00
5:58 AM,52.0,50.0,93,29.89,2.5,East,3.5,-,N/A,,Partly Cloudy,100,2012-10-14 12:58:00
6:13 AM,54.0,52.0,93,29.87,10.0,SE,4.6,-,N/A,,Partly Cloudy,130,2012-10-14 13:13:00
6:53 AM,54.0,53.1,97,29.85,10.0,Variable,3.5,-,N/A,,Clear,0,2012-10-14 13:53:00
7:53 AM,54.0,53.1,97,29.82,10.0,Calm,Calm,-,N/A,,Clear,0,2012-10-14 14:53:00
8:20 AM,54.0,53.1,97,29.80,4.0,Calm,Calm,-,N/A,,Mostly Cloudy,0,2012-10-14 15:20:00
8:29 AM,54.0,52.0,93,29.80,1.5,North,6.9,-,N/A,,Mostly Cloudy,10,2012-10-14 15:29:00
8:31 AM,53.1,52.0,96,29.81,0.5,North,8.1,-,N/A,Fog,Fog,360,2012-10-14 15:31:00
8:39 AM,53.1,51.1,93,29.82,0.2,NNW,5.8,-,0.00,Fog-Rain,Light Rain,340,2012-10-14 15:39:00
8:47 AM,51.8,51.8,100,29.82,0.2,Calm,Calm,-,0.00,Fog-Rain,Light Rain,0,2012-10-14 15:47:00
8:48 AM,52.0,51.1,97,29.83,0.2,Calm,Calm,-,0.00,Fog-Rain,Light Rain,0,2012-10-14 15:48:00
8:57 AM,53.1,51.1,93,29.83,0.2,Calm,Calm,-,0.00,Fog-Rain,Light Rain,0,2012-10-14 15:57:00
9:06 AM,53.1,52.0,96,29.82,0.2,Variable,3.5,-,0.00,Fog-Rain,Light Rain,0,2012-10-14 16:06:00
9:40 AM,54.0,53.1,97,29.81,0.5,Variable,5.8,-,0.00,Fog-Rain,Light Rain,0,2012-10-14 16:40:00
9:45 AM,55.0,53.1,93,29.81,2.0,SSE,8.1,-,0.00,Rain,Light Rain,150,2012-10-14 16:45:00
9:53 AM,55.9,54.0,93,29.81,6.0,SSE,9.2,-,0.00,Rain,Light Rain,150,2012-10-14 16:53:00
10:53 AM,64.9,55.0,70,29.83,10.0,SW,11.5,18.4,0.00,Rain,Light Rain,230,2012-10-14 17:53:00
11:53 AM,55.0,53.1,93,29.86,6.0,North,5.8,-,0.02,Rain,Light Rain,360,2012-10-14 18:53:00
12:53 PM,57.2,55.4,94,29.85,10.0,SSE,10.4,-,N/A,Rain,Light Rain,150,2012-10-14 19:53:00
1:53 PM,60.1,55.0,83,29.84,10.0,SSE,9.2,-,0.00,Rain,Light Rain,160,2012-10-14 20:53:00
2:53 PM,61.0,57.0,87,29.82,10.0,WSW,8.1,-,0.00,,Scattered Clouds,250,2012-10-14 21:53:00
3:46 PM,55.9,54.0,93,29.83,10.0,NW,4.6,-,0.00,Rain,Light Rain,320,2012-10-14 22:46:00
3:53 PM,55.9,54.0,93,29.83,10.0,NW,8.1,-,0.00,Rain,Light Rain,310,2012-10-14 22:53:00
4:23 PM,57.0,55.0,93,29.84,10.0,WNW,5.8,-,0.00,,Overcast,290,2012-10-14 23:23:00
4:31 PM,57.0,55.0,93,29.84,10.0,WNW,9.2,-,0.00,,Overcast,300,2012-10-14 23:31:00
4:53 PM,57.0,55.0,93,29.84,10.0,West,5.8,-,0.00,,Overcast,280,2012-10-14 23:53:00
5:53 PM,57.0,55.0,93,29.85,10.0,Calm,Calm,-,0.00,Rain,Light Rain,0,2012-10-15 00:53:00
6:53 PM,55.0,54.0,96,29.85,9.0,NW,6.9,-,0.00,Rain,Light Rain,310,2012-10-15 01:53:00
7:40 PM,55.9,53.1,90,29.86,10.0,NW,3.5,-,0.00,,Overcast,310,2012-10-15 02:40:00
7:53 PM,55.0,53.1,93,29.86,10.0,NW,8.1,-,0.00,Rain,Light Rain,310,2012-10-15 02:53:00
8:11 PM,55.0,53.1,93,29.86,10.0,West,8.1,-,0.00,Rain,Light Rain,260,2012-10-15 03:11:00
8:53 PM,54.0,52.0,93,29.88,6.0,WNW,8.1,-,0.00,Rain,Light Rain,300,2012-10-15 03:53:00
9:19 PM,55.0,52.0,89,29.88,10.0,West,9.2,-,0.00,Rain,Light Rain,270,2012-10-15 04:19:00
9:51 PM,55.4,51.8,88,29.88,10.0,West,8.1,-,0.00,,Overcast,260,2012-10-15 04:51:00
9:53 PM,55.0,52.0,89,29.88,10.0,West,8.1,-,0.00,,Overcast,260,2012-10-15 04:53:00
10:53 PM,54.0,52.0,93,29.88,10.0,West,5.8,-,N/A,,Overcast,270,2012-10-15 05:53:00
11:53 PM,53.1,51.1,93,29.88,10.0,NW,4.6,-,N/A,,Mostly Cloudy,320,2012-10-15 06:53:00